TimeGMT,TemperatureF,Dew PointF,Humidity,Sea Level PressureIn,VisibilityMPH,Wind Direction,Wind SpeedMPH,Gust SpeedMPH,PrecipitationIn,Events,Conditions,WindDirDegrees,DateUTC
12:50 AM,41.0,41.0,100,30.01,0.3,South,6.9,-,N/A,Fog,Fog,170,2012-11-16 00:50:00
1:50 AM,39.2,39.2,100,30.01,0.2,SSE,8.1,-,N/A,Fog,Fog,150,2012-11-16 01:50:00
2:50 AM,39,39,100,30.01,0,SSE,8.1,,,Fog,Fog,160,2012-11-16 02:50:00
2:50 AM,39.2,39.2,100,30.01,0.3,SSE,8.1,-,N/A,Fog,Fog,160,2012-11-16 02:50:00
3:50 AM,39.2,39.2,100,29.98,0.1,SSE,8.1,-,N/A,Fog,Fog,150,2012-11-16 03:50:00
4:50 AM,39.2,39.2,100,29.98,0.1,South,6.9,-,N/A,Fog,Fog,170,2012-11-16 04:50:00
5:50 AM,40,40,100,29.97,0,South,5.8,,,Fog,Heavy Fog,170,2012-11-16 05:50:00
5:50 AM,39.2,39.2,100,29.95,0.1,South,5.8,-,N/A,Fog,Fog,170,2012-11-16 05:50:00
6:50 AM,41.0,41.0,100,29.95,0.2,SSE,6.9,-,N/A,Fog,Fog,160,2012-11-16 06:50:00
7:50 AM,41.0,41.0,100,29.95,0.2,SSE,5.8,-,N/A,Fog,Fog,160,2012-11-16 07:50:00
8:50 AM,41,41,98,29.96,0,SSE,5.8,,,Fog,Partial Fog,150,2012-11-16 08:50:00
8:50 AM,41.0,41.0,100,29.95,0.2,SSE,5.8,-,N/A,Fog,Fog,150,2012-11-16 08:50:00
9:50 AM,42.8,42.8,100,29.92,1.6,SSE,9.2,-,N/A,,Mostly Cloudy,160,2012-11-16 09:50:00
10:50 AM,44.6,42.8,93,29.92,1.9,SE,6.9,-,N/A,,Mostly Cloudy,140,2012-11-16 10:50:00
11:50 AM,43,42,97,29.91,1,SE,9.2,,,,Mist,130,2012-11-16 11:50:00
11:50 AM,42.8,42.8,100,29.89,1.4,SE,9.2,-,N/A,,Mostly Cloudy,130,2012-11-16 11:50:00
12:50 PM,44.6,42.8,93,29.89,1.9,SE,10.4,-,N/A,,Mostly Cloudy,140,2012-11-16 12:50:00
1:50 PM,44.6,42.8,93,29.86,2.5,SE,9.2,-,N/A,,Mostly Cloudy,140,2012-11-16 13:50:00
2:50 PM,43,42,92,29.86,2,SSE,12.7,,,,Mist,150,2012-11-16 14:50:00
2:50 PM,42.8,41.0,93,29.83,2.5,SSE,12.7,-,N/A,,Mostly Cloudy,150,2012-11-16 14:50:00
3:50 PM,42.8,41.0,93,29.83,-9999.0,SE,6.9,-,N/A,,Haze,140,2012-11-16 15:50:00
4:50 PM,42.8,41.0,93,29.83,2.8,SSE,6.9,-,N/A,,Haze,150,2012-11-16 16:50:00
5:50 PM,42,42,99,29.83,2,SE,6.9,,,Rain,Light Rain,140,2012-11-16 17:50:00
5:50 PM,42.8,41.0,93,29.83,1.9,SE,6.9,-,N/A,Rain,Light Rain,140,2012-11-16 17:50:00
6:50 PM,42.8,41.0,93,29.80,-9999.0,SSE,3.5,-,N/A,Rain,Light Rain,150,2012-11-16 18:50:00
7:50 PM,42.8,41.0,93,29.77,-9999.0,SSE,5.8,-,N/A,,Mostly Cloudy,150,2012-11-16 19:50:00
8:50 PM,43,41,90,29.79,2,SE,5.8,,,,Mist,140,2012-11-16 20:50:00
8:50 PM,42.8,41.0,93,29.77,-9999.0,SE,5.8,-,N/A,,Haze,140,2012-11-16 20:50:00
9:50 PM,42.8,41.0,93,29.74,-9999.0,SE,3.5,-,N/A,,Overcast,130,2012-11-16 21:50:00
10:50 PM,42.8,41.0,93,29.74,1.5,SE,3.5,-,N/A,Rain,Rain,140,2012-11-16 22:50:00
11:50 PM,42,42,100,29.74,1,SE,5.8,,,Rain,Rain,140,2012-11-16 23:50:00
11:50 PM,42.8,42.8,100,29.71,1.0,SE,5.8,-,N/A,Rain,Rain,140,2012-11-16 23:50:00